Terminal Aerodrome Forecast
Issued by NWS Paducah, KY

Home | Current Version | Previous Version | Text Only | Print | Product List | Glossary On
Versions: 1 2 3 4 5 6 7 8 9 10 11 12 13 14 15 16 17
922
FTUS43 KPAH 140210 AAA
TAFEVV
TAF AMD
KEVV 140210Z 1402/1424 28012KT P6SM SKC
     FM140600 30012G20KT P6SM BKN030
     FM141100 33006KT P6SM SCT028
     FM141600 36005KT P6SM BKN090=

USA.gov is the U.S. government's official web portal to all federal, state and local government web resources and services.